7 * 24
多渠道服务支持
TIANQI-5 是中国自主研发的一颗气象卫星,属于风云系列,主要用于气象观测和环境监测。该卫星搭载了先进的遥感仪器,能够提供高精度的气象数据,提升天气预报的准确性。它在轨运行后,将增强我国对极端天气事件的预警能力,为防灾减灾提供重要支持。TIANQI-5 的发射标志着我国在气象卫星技术领域持续进步,对保障国家安全和民生福祉具有重要意义。
中国
(CN)
| 数据来源 | 国际轨道数据 |
| 星历时间: | 2024-08-08T10:09:29+0800 轨道信息已过期447天 |
| 半长轴: | 6549.168km |
| 偏心率: | 0.001212 |
| 轨道倾角: | 97.082° |
| 近地点辐角 | 260.603° |
| 升交点赤经 | 284.183° |
| 平近点角 | 99.390° |
| 近地点: | 163.095km |
| 远地点: | 178.971km |
| 周期: | 87.910分钟 |
| 每日圈数: | 16.380368 |